Flag for Azerbaijan Weather past 2 weeks in Sumqayit, Azerbaijan

Now
57 °F

Clear.


Feels Like: 57 °F
Forecast: 60 / 67 °F
Wind: 3 mph from Northwest

Location: Baku / Bine Airport

Current Time: Oct 23, 2014 at 9:45:23 PM

Latest Report: Oct 23, 2014 at 9:00 PM


Visibility: 10 mi

Pressure: 29.95 "Hg

Humidity: 94%

Dew point: 55 °F

Location of SumqayitLocation

Historic Weather in Sumqayit — Graph

°F

Sumqayit temperature yesterday

Maximum temperature yesterday: 66 °F (at 1:30 PM)
Minimum temperature yesterday: 48 °F (at 7:00 AM)
Average temperature yesterday: 59 °F

Past Weeks' High & Low Weather Summary

 TemperatureHumidityPressure
High73 °F (Oct 16, 3:30 PM)100% (Oct 17, 12:30 AM)30.45 "Hg (Oct 17, 12:30 AM)
Low48 °F (Oct 9, 12:00 AM)46% (Oct 11, 1:30 PM)29.53 "Hg (Oct 19, 8:00 AM)
Average61 °F77%30.05 "Hg
* Reported Oct 8 8:00 PM — Oct 23 8:30 PM, Sumqayit, Weather by CustomWeather, © 2014

Note: Actual official high and low records may vary slightly from our data, if they occured in-between our weather recording intervals... More about our weather records

Advertising

Sumqayit weather history for previous 24 hours

 ConditionsComfort  
Time TempWeatherWind HumidityBarometerVisibility
8:30 PM
Oct 23
59 °FClear.3 mph88%29.95 "Hg10 mi
8:00 PM59 °FClear.3 mph82%29.95 "Hg10 mi
7:30 PM61 °FSunny.6 mph83%29.95 "Hg10 mi
7:00 PM61 °FSunny.7 mph83%29.95 "Hg10 mi
6:30 PM63 °FSunny.5 mph73%29.95 "Hg10 mi
6:00 PM64 °FSunny.7 mph64%29.95 "Hg10 mi
5:30 PM66 °FSunny.7 mph56%29.95 "Hg10 mi
5:00 PM66 °FSunny.7 mph60%29.95 "Hg10 mi
4:30 PM68 °FSunny.7 mph56%29.95 "Hg10 mi
4:00 PM68 °FSunny.6 mph56%29.95 "Hg10 mi
3:30 PM68 °FSunny.7 mph56%29.95 "Hg10 mi
3:00 PM68 °FSunny.8 mph60%29.95 "Hg10 mi
2:30 PM70 °FSunny.5 mph53%29.95 "Hg10 mi
2:00 PM70 °FSunny.2 mph53%29.95 "Hg10 mi
1:30 PM70 °FSunny.No wind53%29.98 "Hg10 mi
1:00 PM68 °FSunny.6 mph56%29.98 "Hg10 mi
12:30 PM66 °FSunny.5 mph64%29.98 "Hg10 mi
12:00 PM66 °FSunny.3 mph68%29.98 "Hg10 mi
11:30 AM64 °FSunny.6 mph68%29.98 "Hg10 mi
11:00 AM63 °FSunny.7 mph77%30.01 "Hg10 mi
10:30 AM63 °FSunny.9 mph77%29.98 "Hg10 mi
10:00 AM59 °FClear.6 mph88%29.98 "Hg5 mi
9:30 AM55 °FClear.5 mph94%29.98 "Hg4 mi
9:00 AM54 °FFog.2 mph94%29.98 "Hg3 mi
8:30 AM52 °FFog.2 mph100%29.98 "Hg2 mi
8:00 AM52 °FFog.3 mph94%29.95 "Hg0 mi
7:30 AM54 °FFog.6 mph94%29.95 "Hg1 mi
7:00 AM50 °FClear.6 mph94%29.95 "Hg5 mi
6:30 AM52 °FFog.7 mph94%29.95 "Hg2 mi
6:00 AM52 °FFog.No wind94%29.95 "Hg2 mi
5:30 AM52 °FFog.2 mph94%29.95 "Hg4 mi
5:00 AM52 °FFog.1 mph94%29.95 "Hg3 mi
4:30 AM54 °FClear.No wind88%29.95 "Hg5 mi
4:00 AM54 °FClear.3 mph94%29.95 "Hg10 mi
3:30 AM55 °FClear.1 mph88%29.95 "Hg10 mi
3:00 AM55 °FClear.3 mph88%29.95 "Hg10 mi
2:30 AM55 °FClear.5 mph88%29.95 "Hg10 mi
2:00 AM57 °FClear.5 mph88%29.95 "Hg10 mi
1:30 AM57 °FClear.5 mph88%29.92 "Hg10 mi
1:00 AM59 °FClear.6 mph88%29.92 "Hg10 mi
12:30 AM61 °FClear.6 mph83%29.92 "Hg10 mi
12:00 AM63 °FClear.9 mph77%29.92 "Hg10 mi
11:30 PM
Oct 22
61 °FClear.8 mph83%29.92 "Hg10 mi
11:00 PM63 °FClear.9 mph83%29.89 "Hg10 mi
10:30 PM63 °FClear.9 mph83%29.89 "Hg10 mi
10:00 PM63 °FClear.12 mph77%29.89 "Hg10 mi
9:30 PM63 °FClear.12 mph77%29.89 "Hg10 mi
9:00 PM64 °FClear.10 mph78%29.86 "Hg10 mi
Weather by CustomWeather, © 2014

See weather overviewHow to use our weather pages